Flag for Germany Weather past 2 weeks in Meissen, Saxony, Germany

Now
55 °F

Scattered clouds.


Feels Like: 53 °F
Forecast: 45 / 56 °F
Wind: 9 mph from Northwest

Location: Dresden-Klotzsche

Current Time: May 26, 2015 at 1:05:45 PM

Latest Report: May 26, 2015 at 12:20 PM


Visibility: N/A

Pressure: 29.98 "Hg

Humidity: 59%

Dew point: 41 °F

Location of MeissenLocation

Historic Weather in Meissen — Graph

°F

Meissen temperature yesterday

Maximum temperature yesterday: 64 °F (at 10:20 AM)
Minimum temperature yesterday: 48 °F (at 4:20 AM)
Average temperature yesterday: 58 °F

Past Weeks' High & Low Weather Summary

 TemperatureHumidityPressure
High75 °F (May 12, 1:50 PM)100% (May 15, 4:20 AM)30.36 "Hg (May 15, 4:20 AM)
Low37 °F (May 15, 4:20 AM)28% (May 11, 1:20 PM)29.65 "Hg (May 19, 1:20 AM)
Average56 °F62%30.03 "Hg
* Reported May 11 11:20 AM — May 26 11:50 AM, Meissen, Weather by CustomWeather, © 2015

Note: Actual official high and low records may vary slightly from our data, if they occured in-between our weather recording intervals... More about our weather records

Advertising

Meissen weather history for previous 24 hours

 ConditionsComfort  
Time TempWeatherWind HumidityBarometerVisibility
11:50 AM
Tue, May 26
55 °FPartly sunny.10 mph63%29.98 "HgN/A
11:20 AM57 °FScattered clouds.10 mph55%29.98 "HgN/A
10:50 AM55 °FScattered clouds.10 mph67%29.98 "HgN/A
10:20 AM54 °FScattered clouds.10 mph72%29.98 "HgN/A
9:50 AM52 °FScattered clouds.8 mph77%29.98 "HgN/A
9:20 AM52 °FLight rain. Partly sunny.8 mph77%29.98 "HgN/A
8:50 AM50 °FLight rain. Partly sunny.6 mph88%29.95 "HgN/A
8:20 AM50 °FLight rain. Partly sunny.9 mph88%29.95 "HgN/A
7:50 AM50 °FLight rain. Partly sunny.7 mph88%29.95 "HgN/A
7:20 AM50 °FLight rain. Broken clouds.7 mph94%29.95 "HgN/A
6:50 AM50 °FLight rain. Broken clouds.8 mph94%29.95 "HgN/A
6:20 AM50 °FDrizzle. Partly sunny.7 mph94%29.92 "HgN/A
5:50 AM50 °FPassing clouds.7 mph94%29.92 "Hg6 mi
5:20 AM50 °FDrizzle. Fog.6 mph100%29.92 "Hg2 mi
4:50 AM50 °FPartly cloudy.7 mph100%29.92 "Hg5 mi
4:20 AM50 °FPassing clouds.6 mph100%29.89 "Hg5 mi
3:50 AM50 °FLight rain. Passing clouds.8 mph100%29.89 "Hg4 mi
3:20 AM50 °FLight rain. Passing clouds.7 mph100%29.89 "Hg4 mi
2:50 AM52 °FLight rain. Passing clouds.8 mph94%29.89 "Hg6 mi
2:20 AM52 °FPassing clouds.7 mph100%29.89 "HgN/A
1:50 AM52 °FLight rain. Partly cloudy.8 mph100%29.89 "HgN/A
1:20 AM54 °FLight rain. Partly cloudy.8 mph94%29.89 "HgN/A
12:50 AM54 °FLight rain. Passing clouds.9 mph94%29.89 "HgN/A
12:20 AM55 °FLight rain. Partly cloudy.9 mph82%29.89 "HgN/A
11:50 PM
Mon, May 25
57 °FPartly cloudy.7 mph77%29.89 "HgN/A
11:20 PM57 °FPassing clouds.6 mph77%29.89 "HgN/A
10:20 PM57 °FPassing clouds.7 mph67%29.86 "HgN/A
9:50 PM57 °FPassing clouds.6 mph72%29.86 "HgN/A
9:20 PM57 °FPassing clouds.5 mph77%29.86 "HgN/A
8:50 PM59 °FPassing clouds.6 mph72%29.86 "HgN/A
8:20 PM61 °FPassing clouds.3 mph68%29.86 "HgN/A
7:50 PM63 °FPassing clouds.5 mph64%29.86 "HgN/A
7:20 PM63 °FSunny.6 mph68%29.86 "Hg10 mi
6:50 PM63 °FPassing clouds.8 mph68%29.86 "HgN/A
6:20 PM64 °FPassing clouds.7 mph64%29.86 "HgN/A
5:50 PM63 °FPassing clouds.6 mph68%29.86 "HgN/A
5:20 PM63 °FPartly sunny.8 mph64%29.86 "HgN/A
4:50 PM63 °FPartly sunny.8 mph64%29.86 "HgN/A
4:20 PM64 °FPartly sunny.9 mph60%29.89 "HgN/A
3:50 PM64 °FBroken clouds.9 mph60%29.89 "HgN/A
3:20 PM64 °FBroken clouds.10 mph64%29.89 "HgN/A
2:50 PM64 °FPartly sunny.9 mph60%29.89 "HgN/A
2:20 PM64 °FPartly sunny.10 mph64%29.89 "HgN/A
1:50 PM64 °FPartly sunny.8 mph64%29.89 "HgN/A
1:20 PM63 °FPartly sunny.9 mph73%29.92 "HgN/A
Weather by CustomWeather, © 2015

See weather overviewHow to use our weather pages